Location: Beach West Mobile Home Estates
(33.7764°N, 117.9914°W)
Time: 02:09:35
(UTC+00:00)

Daily predictions for brighter satellites

Satellite Brightness Start Highest point End
(mag) Time Altitude Azimuth Time Altitude Azimuth Time Altitude Azimuth
Cosmos 1689 Rocket 2.8 03:10:08 10° N 03:12:51 55° WNW 03:15:34 10° SSW
Cosmos 1844 4.1 03:07:31 10° SSW 03:13:13 71° WNW 03:18:54 10° NNE
USA 186 2.3 03:11:23 10° SE 03:13:33 26° ENE 03:15:37 10° NNE
Cosmos 1242 Rocket 3.5 03:11:35 10° SSE 03:14:39 27° E 03:17:43 10° NNE
Cosmos 1408 Rocket 4.3 03:13:18 10° NNW 03:17:39 57° W 03:22:00 10° S
GPS 2-04 Rocket1 2.9 03:13:44 10° W 03:17:54 80° N 03:22:01 10° ENE
SL-08 ROCKET BODY 4.4 03:15:40 10° N 03:21:28 61° E 03:27:12 10° SSE
Resurs 01 Rocket 3.7 03:20:20 10° E 03:21:53 12° ENE 03:23:26 10° NE
X-37B 2.8 03:20:51 10° NNW 03:23:12 18° NNE 03:25:33 10° ENE
S3M 4.1 03:23:19 10° S 03:29:37 65° E 03:35:52 10° NNE
OBJECT-B 1.2 03:28:55 10° SSE 03:32:00 43° ENE 03:35:05 10° N
Delta 2 Rocket 3.8 03:28:58 10° WSW 03:34:20 79° SSE 03:39:08 10° ENE
ERS-2 2.8 03:33:28 10° N 03:37:03 58° WNW 03:40:36 10° SSW
Cosmos 1437 Rocket 3.8 03:33:34 10° SSW 03:37:18 50° W 03:41:10 10° N
Cosmos 1805 Rocket 3.6 03:34:22 10° N 03:38:41 62° E 03:43:00 10° SSE
Cosmos 1633 Rocket 4.4 03:39:31 10° NNE 03:43:03 23° ENE 03:45:05 17° ESE
ISS -2.6 03:42:40 10° S 03:45:23 23° SE 03:46:50 17° E
Cosmos 1328 Rocket 4.4 03:42:02 12° SSE 03:45:28 31° E 03:49:23 10° NNE
Milstar 3 4.5 03:26:09 10° WSW 03:46:09 59° S 03:56:11 10° E
Helios 1A Rocket 3.7 03:44:48 10° S 03:48:50 53° W 03:52:53 10° NNW
USA 290 2.1 03:47:22 10° NNW 03:50:36 74° ENE 03:52:36 21° SSE
Cosmos 1777 Rocket 4.0 03:49:36 10° S 03:54:40 56° ESE 03:59:45 10° NNE
USA 267 3.5 03:50:29 13° SSE 03:56:20 69° SW 04:02:54 10° NW
Cosmos 1437 2.9 03:57:11 33° ESE 03:57:42 36° E 04:00:21 10° NNE
Tianhe-1 1.1 03:55:45 10° SW 03:58:47 52° SSE 04:00:18 25° E
Cosmos 1602 4.3 03:55:52 10° N 03:59:32 39° E 04:01:06 27° SE
Ariane Rocket 3.0 03:57:01 16° SSE 04:00:57 65° ENE 04:05:58 10° N
Meteor 1-26 Rocket 4.1 03:56:11 10° S 04:01:53 76° E 04:07:25 10° NNE
Cosmos 2082 Rocket 4.3 04:00:56 10° NNE 04:02:49 12° NE 04:04:43 10° ENE
Cosmos 1933 4.0 03:59:35 10° SSW 04:03:33 55° W 04:07:30 10° N
Resurs 1-3 3.5 04:04:41 22° SSE 04:07:27 69° ENE 04:11:49 10° N
Cosmos 1782 2.7 04:05:13 10° S 04:09:08 84° E 04:13:08 10° N
OAO 3 Rocket 3.2 04:05:00 10° WSW 04:09:30 54° SSE 04:12:04 24° E
Cosmos 1812 3.3 04:12:33 33° ESE 04:12:56 34° E 04:16:27 10° NNE
Cosmos 1666 Rocket 3.5 04:09:21 10° N 04:13:41 67° E 04:15:46 29° SSE
SJ 16-02 1.7 04:13:23 29° SSE 04:15:02 42° ESE 04:19:14 10° NNE
DELTA 2 R/B (1) 3.7 04:10:57 10° WNW 04:16:29 66° SSW 04:19:08 31° SE
COSMOS 2406 4.2 04:12:00 10° N 04:17:01 31° ENE 04:19:01 25° E
SJ-6B 4.2 04:16:42 10° SSW 04:20:16 36° W 04:23:57 10° NNW
Sich 1 3.8 04:17:05 10° NNW 04:21:19 52° W 04:24:55 14° SSW
Cosmos 2278 Rocket 2.1 04:15:43 10° SSW 04:21:22 85° ESE 04:27:03 10° NNE
IRS-1A Rocket 4.4 04:17:10 16° S 04:21:49 77° WSW 04:27:42 10° NNW
Meteor 1-20 Rocket 4.5 04:18:19 10° NNW 04:23:48 66° W 04:28:17 15° S
Meteor 2-6 Rocket 4.3 04:23:08 30° SSE 04:25:27 49° E 04:30:43 10° NNE
Landsat 7 4.2 04:24:44 36° ESE 04:26:07 47° ENE 04:30:41 10° N
Meteor 1-14 Rocket 4.4 04:21:38 10° N 04:27:19 54° E 04:29:27 35° SE
Cosmos 1151 Rocket 3.6 04:23:29 10° SSW 04:27:45 58° W 04:32:05 10° N
BREEZE-M DEB (TANK) 3.6 04:35:02 10° WNW 04:37:28 32° SW 04:37:53 31° SSW
ATLAS 5 CENTAUR R/B 2.8 04:33:18 10° NW 04:39:18 63° WSW 04:42:54 29° S
IGS 5A 3.3 04:40:06 61° SSE 04:40:47 82° ENE 04:44:56 10° N
SPOT 1/Viking Rocket 3.8 04:44:07 45° ESE 04:45:03 51° ENE 04:50:05 10° N
CZ-4C R/B 3.2 04:38:41 10° NNW 04:46:19 66° ENE 04:49:57 37° SE
Mugunghwa Rocket 4.3 04:41:24 10° WSW 04:47:26 46° S 04:48:30 42° SSE
BREEZE-M DEB (TANK) 2.8 04:43:17 10° NW 04:49:00 64° NNE 04:49:00 64° NNE
Cosmos 1500 3.1 04:47:53 10° N 04:51:25 77° NW 04:51:25 77° NW
GPS 2-04 Rocket1 2.9 04:53:24 10° W 04:57:28 68° N 04:57:28 68° N
Cosmos 2228 Rocket 4.0 04:58:50 37° NE 04:58:50 37° NE 05:01:57 10° NNE
Resurs 01 Rocket 2.2 04:56:47 42° SSW 04:57:51 54° W 05:02:13 10° NNW
CZ-2C R/B 4.2 04:54:55 10° N 04:59:23 60° WNW 05:01:24 31° SW
X-37B 2.3 04:56:56 10° WNW 04:58:51 33° WNW 04:58:51 33° WNW
SPOT 3 Rocket 3.8 04:58:57 44° SSW 05:00:29 65° WSW 05:05:36 10° NNW
Cosmos 1833 Rocket 2.6 04:56:50 10° NNW 05:02:30 78° ENE 05:03:23 63° SE
ATLAS 2AS CENTAUR R/B 4.1 04:58:59 10° N 05:04:50 25° NE 05:07:06 21° ENE
Nadezhda 1 Rocket 4.1 05:06:24 53° ESE 05:06:55 54° E 05:12:59 10° NNE
Spot 2 Rocket 3.5 05:08:21 63° ENE 05:08:21 63° ENE 05:13:20 10° N
Cosmos 1515 Rocket 4.4 05:07:28 35° SW 05:08:47 46° W 05:13:02 10° N
ERS-1 Rocket 3.7 05:09:55 39° ENE 05:09:55 39° ENE 05:14:09 10° N
Cosmos 2184 Rocket 3.9 05:04:00 10° N 05:10:08 63° E 05:10:49 59° ESE
Meteor 1-11 Rocket 4.1 05:04:50 10° N 05:10:33 47° ENE 05:10:37 47° E
Cosmos 1538 Rocket 3.8 05:05:18 10° NNW 05:10:39 82° ENE 05:10:57 78° SE
Cosmos 2074 Rocket 3.9 05:05:42 10° N 05:12:00 69° E 05:12:51 61° SE
Meteor 1-5 Rocket 4.0 05:10:31 10° NNW 05:15:50 77° W 05:16:23 69° SSW
Delta 2 Rocket 3.8 05:11:55 10° W 05:16:44 68° NNW 05:16:44 68° NNW
USA 307 4.2 05:15:46 10° NNW 05:19:05 34° NNE 05:19:05 34° NNE
Cosmos 1271 Rocket 3.8 05:22:02 44° NW 05:22:02 44° NW 05:25:24 10° N
ISS -1.1 05:19:10 10° W 05:20:14 17° W 05:20:14 17° W
Cosmos 2297 3.9 05:24:00 56° ENE 05:24:00 56° ENE 05:28:41 10° NNE
Cosmos 967 Rocket 4.3 05:30:00 73° SSW 05:30:41 87° ESE 05:36:59 10° NNE
GOES 2 Rocket 4.5 05:24:02 10° WSW 05:33:15 60° S 05:33:34 60° S
USA 308 4.2 05:29:22 10° NNW 05:32:19 36° N 05:32:19 36° N
Terra 2.9 05:34:53 37° NNE 05:34:53 37° NNE 05:38:07 10° N
CARTOSAT-1 4.5 05:35:21 46° NNW 05:35:21 46° NNW 05:38:28 10° NNW
Cosmos 1610 Rocket 4.5 05:29:20 10° N 05:35:10 65° ENE 05:35:10 65° ENE
ARIANE 5 R/B 3.9 05:46:13 38° NW 05:46:13 38° NW 05:49:13 10° NNW
Cosmos 2082 Rocket 2.3 05:41:58 10° NNW 05:46:55 70° NNW 05:46:55 70° NNW
SPOT 5 3.5 05:52:03 58° NW 05:52:03 58° NW 05:56:20 10° NNW
SJ 16-02 4.2 05:51:29 10° W 05:53:48 14° WNW 05:56:07 10° NNW
Cosmos 1898 Rocket 4.1 05:54:30 56° NW 05:54:30 56° NW 05:59:08 10° N
Cosmos 1295 Rocket 4.5 05:50:37 10° N 05:56:31 78° N 05:56:31 78° N
Cosmos 1943 Rocket 2.8 06:02:06 52° N 06:02:06 52° N 06:06:21 10° NNE
Cosmos 2369 Rocket 3.6 06:14:45 29° NE 06:14:45 29° NE 06:17:27 10° NNE
Milstar 3 3.6 06:18:57 10° W 06:29:47 56° SW 06:29:47 56° SW
CZ-4C R/B 4.4 06:28:15 10° WNW 06:34:40 27° WSW 06:35:09 27° WSW
ATLAS 2AS CENTAUR R/B 3.4 06:49:16 10° NW 06:54:32 48° WNW 06:54:32 48° WNW
Cosmos 2369 Rocket 4.5 07:56:29 16° NW 07:56:29 16° NW 07:59:41 10° NNW
Lacrosse 5 4.1 08:06:31 22° NNE 08:06:31 22° NNE 08:08:22 10° NNE
Resurs 1-4 Rocket 4.4 08:18:44 10° NE 08:20:20 16° ENE 08:20:20 16° ENE
USA 215 4.4 08:26:21 24° E 08:29:28 38° NE 08:35:22 10° NNW
Cosmos 2227 Rocket 4.2 08:46:58 10° N 08:51:16 22° ENE 08:52:41 20° E
Cosmos 2297 Rocket 3.7 08:49:08 10° N 08:54:06 30° ENE 08:54:12 30° ENE
Cosmos 2123 Rocket 4.5 09:18:35 52° ENE 09:18:35 52° ENE 09:24:09 10° NNE
Cosmos 2100 Rocket 4.3 09:11:57 10° N 09:17:29 66° NNE 09:17:29 66° NNE
Cosmos 1802 Rocket 4.4 09:14:33 10° N 09:20:19 54° ENE 09:20:19 54° ENE
COSMOS 2455 3.3 09:25:53 10° NNW 09:30:34 56° NNW 09:30:34 56° NNW
Lacrosse 4 Rocket 3.2 09:38:55 33° NNE 09:38:55 33° NNE 09:41:23 10° NNE
Cosmos 2219 3.5 09:33:17 10° NNW 09:38:33 63° NE 09:38:33 63° NE
SL-16 R/B 2.4 09:45:42 86° ENE 09:45:42 86° ENE 09:51:58 10° NNW
ADEOS II 2.5 09:43:06 10° NNE 09:47:48 56° ENE 09:47:48 56° ENE
NPP 4.0 09:51:02 10° N 09:55:31 55° NNW 09:55:31 55° NNW
CZ-2D R/B 2.8 09:51:35 10° N 09:55:45 44° NW 09:55:45 44° NW
Resurs 1-4 Rocket 3.0 09:57:28 10° N 10:01:25 38° NW 10:01:25 38° NW
Meteor 2-5 Rocket 4.2 10:04:03 47° SE 10:05:01 53° E 10:10:29 10° NNE
ADEOS Rocket 4.1 09:59:24 16° SE 10:05:20 55° ENE 10:12:49 10° N
Cosmos 1697 Rocket 3.2 10:05:50 48° NW 10:05:50 48° NW 10:10:49 10° N
Cosmos 2360 4.4 10:06:06 59° NW 10:06:06 59° NW 10:11:30 10° NNE
Cosmos 407 Rocket 4.1 10:02:54 10° N 10:08:10 56° ENE 10:09:48 40° SE
GP-B 3.7 10:04:17 10° NNE 10:08:12 52° ENE 10:08:12 52° ENE
Atlas Centaur 2 3.7 10:11:03 31° SSE 10:11:03 31° SSE 10:16:48 10° E
USA 215 3.5 10:13:35 48° W 10:13:35 48° W 10:18:38 10° NW
Cosmos 1624 Rocket 4.0 10:12:43 81° NNW 10:12:43 81° NNW 10:17:53 10° NNE
Meteor 1-16 Rocket 4.3 10:07:47 10° NNW 10:13:22 66° WNW 10:13:22 66° WNW
Cosmos 1725 Rocket 3.8 10:07:30 10° N 10:13:44 76° W 10:14:14 71° SW
Cosmos 1626 4.1 10:17:00 23° NNW 10:17:00 23° NNW 10:18:34 10° N
CBERS-1 4.0 10:11:19 10° NNE 10:16:25 71° ESE 10:16:43 69° SE
Cosmos 1980 Rocket 2.0 10:17:42 77° WSW 10:17:58 79° WNW 10:23:40 10° NNE
USA 281 3.7 10:22:58 41° W 10:22:58 41° W 10:28:14 10° NW
Cosmos 2233 Rocket 3.9 10:16:23 10° N 10:22:34 80° E 10:24:41 44° SSE
CENTAUR R/B 4.2 10:21:26 14° SE 10:24:08 20° ESE 10:28:26 10° ENE
Cosmos 2016 Rocket 4.2 10:21:47 10° NNW 10:27:38 47° W 10:27:38 47° W
DELTA 2 DEB (DPAF) 4.1 10:29:20 79° NNW 10:29:20 79° NNW 10:33:33 10° NNW
Cosmos 1452 Rocket 4.4 10:30:10 33° SSE 10:31:56 44° ESE 10:36:56 10° NNE
ATLAS 2A CENTAUR R/B 4.0 10:32:55 11° SE 10:32:55 11° SE 10:34:13 10° ESE
Cosmos 220 Rocket 4.3 10:33:33 59° SE 10:33:53 61° ESE 10:38:15 10° NNE
Cosmos 2056 Rocket 3.7 10:34:18 50° WNW 10:34:19 50° WNW 10:39:18 10° N
Cosmos 1300 3.1 10:31:06 10° N 10:34:41 62° ENE 10:34:41 62° ENE
Cosmos 2227 Rocket 2.8 10:30:09 10° NW 10:34:26 40° WNW 10:34:26 40° WNW
Cosmos 2297 Rocket 3.5 10:33:08 10° NW 10:35:57 24° WNW 10:35:57 24° WNW
Cosmos 2061 Rocket 4.4 10:32:17 10° NNW 10:38:11 42° W 10:38:33 41° W
Timation 2 Rocket 4.4 10:33:21 10° NW 10:38:04 39° W 10:38:04 39° W
Cosmos 2278 3.8 10:39:29 51° WSW 10:40:24 58° WNW 10:46:03 10° NNE
Cosmos 2285 Rocket 4.2 10:40:01 47° WSW 10:41:27 57° WNW 10:47:47 10° N
Cosmos 1023 Rocket 4.4 10:39:10 10° NNW 10:44:23 71° WSW 10:45:44 49° S
CZ-2C R/B 4.4 10:44:06 10° NE 10:48:22 26° E 10:52:37 10° SSE
OAO 2 Rocket 3.4 10:47:16 45° W 10:48:56 81° N 10:54:16 10° E
IRS-1C 4.1 10:43:57 10° NNE 10:49:18 84° ESE 10:51:21 39° S
Cosmos 2082 3.6 10:45:41 10° NNW 10:51:20 68° WSW 10:54:30 27° S
SL-16 R/B 2.8 10:50:34 26° S 10:53:34 52° ESE 10:59:04 10° NNE
Cosmos 1340 3.3 10:59:12 40° WNW 10:59:12 40° WNW 11:02:19 10° N
MSX 3.8 10:53:40 10° NNE 10:59:28 84° WNW 11:02:20 32° SSW
SL-08 R/B 4.1 10:55:55 10° SSE 11:00:28 50° ENE 11:04:57 10° N
IRS-1D 4.4 10:56:09 10° N 11:00:53 33° WNW 11:01:51 31° W
Cosmos 1892 Rocket 4.2 10:58:36 23° SSE 11:01:01 52° E 11:05:14 10° NNE
Cosmos 1140 Rocket 3.7 10:57:08 10° NNW 11:02:08 48° WSW 11:03:23 40° SW
Meteor 1-28 Rocket 4.2 11:03:34 31° WNW 11:03:34 31° WNW 11:06:03 10° NNW
OAO 1 Rocket 4.4 11:01:43 42° WSW 11:03:33 77° SSE 11:08:53 10° E
BREEZE-M DEB (TANK) 4.0 11:06:07 18° NW 11:06:39 18° NW 11:08:34 10° N
IDEFIX/ARIANE 42P 3.0 11:03:47 10° N 11:08:47 46° WNW 11:10:31 34° WSW
OAO 3 Copernicus 4.4 11:08:21 39° SW 11:09:59 59° SSE 11:14:59 10° E
COSMOS 2441 4.4 11:10:30 10° N 11:15:23 66° WNW 11:17:45 30° SSW
NOSS 3-2 (C) 4.0 11:12:09 18° S 11:15:57 46° ESE 11:21:36 10° NE
CZ-2C R/B 4.0 11:14:54 10° NNE 11:18:45 42° E 11:22:27 11° S
Cosmos 2322 Rocket 2.4 11:16:39 19° S 11:20:45 71° ESE 11:26:25 10° NNE
Meteor 2-10 Rocket 3.6 11:17:07 10° N 11:22:47 85° W 11:28:11 10° S
Cosmos 2058 Rocket 4.3 11:20:31 10° N 11:24:50 44° E 11:29:08 10° SSE
Cosmos 1726 Rocket 3.6 11:22:59 10° N 11:27:23 85° E 11:31:48 10° S
ADEOS II 3.9 11:24:36 10° NNW 11:27:26 15° WNW 11:28:45 14° W
Cosmos 1606 Rocket 3.5 11:23:06 10° N 11:27:30 72° W 11:31:47 11° S
ARIANE 5 R/B 2.7 11:22:38 10° N 11:27:35 51° WNW 11:30:25 24° SW
Cosmos 2228 3.1 11:24:42 10° NNW 11:28:54 55° W 11:31:54 18° SSW
Cosmos 1891 Rocket 4.3 11:23:23 10° N 11:29:24 72° W 11:35:23 10° S
SL-16 R/B 4.4 11:30:46 11° W 11:30:46 11° W 11:31:31 10° WNW
Cosmos 2263 Rocket 2.3 11:24:53 10° NNW 11:30:34 82° ENE 11:36:15 10° SSE
CZ-4B R/B 4.2 11:32:47 10° N 11:37:25 38° WNW 11:40:23 20° SW
NOSS 3-2 (A) 3.4 11:34:58 22° SW 11:38:28 60° WNW 11:44:30 10° NNE
Cosmos 2346 Rocket 4.5 11:33:28 15° SSW 11:38:33 61° W 11:44:32 10° N
Meteor 1-21 Rocket 4.3 11:34:21 10° S 11:39:58 81° E 11:45:32 10° N
Aureole 2 Rocket 2.1 11:38:03 10° NNW 11:40:35 40° WSW 11:41:22 31° SSW
Cosmos 2360 Rocket 2.7 11:37:50 10° S 11:43:23 61° ESE 11:48:58 10° NNE
Cosmos 405 4.1 11:41:50 10° NW 11:44:41 23° W 11:45:23 22° WSW
Tsikada Rocket 4.1 11:39:51 10° S 11:46:16 87° E 11:52:40 10° N
ADEOS Rocket 4.4 11:46:21 15° SW 11:51:00 26° W 11:57:14 10° NW
USA 238 DEB 3.7 11:46:56 15° SW 11:52:21 68° WNW 11:59:05 10° NNE
Cosmos 2237 4.2 11:46:43 10° SSW 11:52:26 89° WNW 11:58:11 10° NNE
USA 238 3.7 11:47:02 15° SW 11:52:27 68° WNW 11:59:10 10° NNE
ISS -2.9 11:50:52 10° NW 11:54:11 55° NE 11:57:30 10° ESE
